Location: Newark
(31.5350°N, 35.0986°E)
Time: 08:13:52
(UTC+00:00)

Transit 2A Rocket - All Passes

Search period start: 19 September 2019 00:00
Search period end: 29 September 2019 00:00
Orbit: 592 x 911 km, 66.7° (Epoch: 19 September)

Date Brightness Start Highest point End Pass type
(mag) Time Alt. Az. Time Alt. Az. Time Alt. Az.
19 Sep - 08:22:31 10° SSE 08:26:21 19° ESE 08:30:00 10° ENE daylight
19 Sep - 10:03:12 10° SW 10:08:38 47° WNW 10:13:39 10° NNE daylight
19 Sep - 18:52:20 10° N 18:56:20 36° ENE 19:00:18 10° SE visible
19 Sep - 20:36:15 10° WNW 20:38:27 14° WSW 20:40:40 10° SW night (unlit)
20 Sep - 09:20:24 10° SSW 09:26:07 86° WNW 09:31:21 10° NNE daylight
20 Sep - 11:09:04 10° NW 11:09:12 10° NW 11:09:20 10° NW daylight
20 Sep - 18:10:35 10° N 18:13:40 19° NE 18:16:42 10° ESE visible
20 Sep - 19:52:26 10° NW 19:56:10 29° WSW 19:59:53 10° S night (unlit)
21 Sep - 08:38:08 10° S 08:43:38 51° ESE 08:48:43 10° NE daylight
21 Sep - 10:22:38 10° W 10:26:22 18° NW 10:29:54 10° NNW daylight
21 Sep - 19:09:31 10° NNW 19:13:47 63° WSW 19:18:03 10° SSE visible
22 Sep - 07:56:29 10° SSE 08:01:13 28° ESE 08:05:40 10° NE daylight
22 Sep - 09:38:44 10° WSW 09:43:40 32° WNW 09:48:16 10° N daylight
22 Sep - 18:27:03 10° NNW 18:31:18 59° ENE 18:35:33 10° SE visible
23 Sep - 07:15:52 10° SE 07:18:53 15° ESE 07:21:47 10° ENE daylight
23 Sep - 08:55:33 10° SW 09:01:05 58° WNW 09:06:11 10° NNE daylight
23 Sep - 17:44:57 10° N 17:48:43 28° ENE 17:52:27 10° ESE visible
23 Sep - 19:28:02 10° WNW 19:30:58 18° WSW 19:33:55 10° SSW visible
24 Sep - 08:12:55 10° SSW 08:18:35 78° ESE 08:23:46 10° NNE daylight
24 Sep - 09:59:22 10° WNW 10:01:32 12° NW 10:03:38 10° NNW daylight
24 Sep - 17:03:30 10° NNE 17:06:00 15° NE 17:08:29 10° E visible
24 Sep - 18:44:40 10° NW 18:48:38 37° WSW 18:52:38 10° S visible
25 Sep - 07:30:51 10° S 07:36:07 41° ESE 07:41:01 10° NE daylight
25 Sep - 09:14:34 10° WSW 09:18:45 22° WNW 09:22:41 10° N daylight
25 Sep - 18:01:56 10° NNW 18:06:13 83° WSW 18:10:33 10° SSE visible
26 Sep - 06:49:28 10° SSE 06:53:43 22° ESE 06:57:46 10° ENE daylight
26 Sep - 08:30:56 10° SW 08:36:05 38° WNW 08:40:52 10° N daylight
26 Sep - 17:19:34 10° NNW 17:23:42 45° ENE 17:27:51 10° SE visible
26 Sep - 19:04:40 10° W 19:05:45 11° WSW 19:06:50 10° WSW visible
27 Sep - 06:09:42 10° ESE 06:11:25 11° ESE 06:13:05 10° E daylight
27 Sep - 07:47:56 10° SSW 07:53:32 71° WNW 07:58:40 10° NNE daylight
27 Sep - 16:37:39 10° N 16:41:05 23° ENE 16:44:31 10° ESE visible
27 Sep - 18:20:03 10° NW 18:23:28 23° WSW 18:26:54 10° SSW visible
28 Sep - 07:05:30 10° SSW 07:11:03 63° ESE 07:16:09 10° NNE daylight
28 Sep - 08:50:52 10° W 08:53:52 15° NW 08:56:45 10° NNW daylight
28 Sep - 15:56:40 10° NNE 15:58:19 12° NE 15:59:59 10° ENE visible
28 Sep - 17:36:57 10° NW 17:41:06 49° WSW 17:45:17 10° S visible
